Flight Track Log - Related Links

Times and Time Zones

All times are in EST time to prevent confusion due to time zone crossing. See the AAL289 flight status page for this flight to view local times or setup timezone preferences in your user account.

Time Position Orientation Groundspeed Altitude Reporting Facility
EST Latitude Longitude Course Direction KTS MPH feet Rate Location/Type
11:52AM 41.9698 -87.9406 285° West 181 208 2,200  Level FlightAware ADS-B
11:53AM 41.9749 -87.9533 298° West 179 206 2,900 2,667 Climbing FlightAware ADS-B (CYQU)
11:53AM 41.9837 -87.9633 320° Northwest 186 214 3,400 1,404 Climbing FlightAware ADS-B (CYQU)
11:53AM 42.0087 -87.9863 326° Northwest 214 246 4,000 1,448 Climbing FlightAware ADS-B
11:54AM 42.0286 -88.0057 324° Northwest 225 259 4,800 1,610 Climbing FlightAware ADS-B (CYQU)
11:54AM 42.0428 -88.0194 324° Northwest 238 274 5,100 686 Climbing FlightAware ADS-B
11:54AM 42.0620 -88.0360 327° Northwest 242 278 5,200 150 Climbing FlightAware ADS-B (CYQU)
11:55AM 42.0829 -88.0460 340° North 248 285 5,200  Level FlightAware ADS-B
11:55AM 42.1036 -88.0524 347° North 249 287 5,200  Level FlightAware ADS-B
11:55AM 42.1280 -88.0594 348° North 249 287 5,200  Level FlightAware ADS-B
11:56AM 42.1519 -88.0634 353° North 254 292 5,200  Level FlightAware ADS-B (CYQU)
11:56AM 42.1823 -88.0652 358° North 256 295 5,200  Level FlightAware ADS-B
11:56AM 42.2047 -88.0658 359° North 256 295 5,200 1,350 Level FlightAware ADS-B (CYQU)
11:57AM 42.2342 -88.0668 359° North 253 291 6,100 2,571 Climbing FlightAware ADS-B
11:57AM 42.2535 -88.0676 358° North 249 287 7,000 2,400 Climbing FlightAware ADS-B
11:58AM 42.2807 -88.0694 357° North 253 291 7,700 2,250 Climbing FlightAware ADS-B
11:58AM 42.3012 -88.0716 355° North 253 291 8,500 2,250 Climbing FlightAware ADS-B
11:58AM 42.3363 -88.0756 355° North 257 296 9,500 2,063 Climbing FlightAware ADS-B (CYQU)
11:59AM 42.3663 -88.0788 355° North 266 306 10,700 1,364 Climbing FlightAware ADS-B (CYQU)
11:59AM 42.4195 -88.0859 354° North 299 344 11,000 774 Climbing FlightAware ADS-B (EGPH / EDI)
12:00PM 42.4661 -88.0933 353° North 331 381 11,500 1,091 Climbing FlightAware ADS-B (EGPH / EDI)
12:01PM 42.5169 -88.1012 353° North 339 390 12,200 1,781 Climbing FlightAware ADS-B
12:01PM 42.5625 -88.1081 354° North 342 394 13,400 2,280 Climbing FlightAware ADS-B
12:01PM 42.5913 -88.1091 358° North 350 403 14,100 1,950 Climbing FlightAware ADS-B
12:02PM 42.6288 -88.1002 10° North 365 420 14,700 1,692 Climbing FlightAware ADS-B
12:02PM 42.6600 -88.0833 22° Northeast 382 440 15,200 1,800 Climbing FlightAware ADS-B (CYQU)
12:03PM 42.7465 -87.9951 37° Northeast 402 463 17,100 1,960 Climbing FlightAware ADS-B
12:04PM 42.8061 -87.9339 37° Northeast 402 463 18,500 2,083 Climbing FlightAware ADS-B
12:04PM 42.8553 -87.8854 36° Northeast 407 468 19,600 1,613 Climbing FlightAware ADS-B (EGPH / EDI)
12:06PM 42.9927 -87.7546 35° Northeast 422 486 21,700 1,417 Climbing FlightAware ADS-B
12:06PM 43.0568 -87.6952 34° Northeast 432 497 22,600 1,333 Climbing FlightAware ADS-B
12:07PM 43.1416 -87.6156 34° Northeast 441 507 23,700 1,267 Climbing FlightAware ADS-B
12:08PM 43.2096 -87.5513 35° Northeast 449 517 24,500 1,268 Climbing FlightAware ADS-B
12:08PM 43.2593 -87.5043 35° Northeast 453 521 25,200 1,352 Climbing FlightAware ADS-B
12:09PM 43.3310 -87.4364 35° Northeast 455 524 26,100 1,125 Climbing FlightAware ADS-B
12:10PM 43.3987 -87.3722 35° Northeast 461 531 26,700 987 Climbing FlightAware ADS-B
12:10PM 43.4685 -87.3059 35° Northeast 466 536 27,400 975 Climbing FlightAware ADS-B
12:11PM 43.5420 -87.2356 35° Northeast 471 542 28,000 889 Climbing FlightAware ADS-B
12:12PM 43.6142 -87.1665 35° Northeast 475 547 28,600 911 Climbing FlightAware ADS-B
12:12PM 43.6860 -87.0975 35° Northeast 479 551 29,200 911 Climbing FlightAware ADS-B
12:13PM 43.7501 -87.0359 35° Northeast 482 555 29,800 900 Climbing FlightAware ADS-B
12:14PM 43.8322 -86.9565 35° Northeast 484 557 30,400 825 Climbing FlightAware ADS-B
12:14PM 43.9009 -86.8899 35° Northeast 487 560 30,900 404 Climbing FlightAware ADS-B
12:15PM 43.9942 -86.7990 35° Northeast 486 559 31,000 43 Climbing FlightAware ADS-B
12:17PM 44.1602 -86.6368 35° Northeast 482 555 31,000  Level FlightAware ADS-B
12:17PM 44.2412 -86.5574 35° Northeast 482 555 31,000 -60 Level FlightAware ADS-B
12:18PM 44.3322 -86.4678 35° Northeast 482 555 30,900  Descending Minneapolis Center
12:19PM 44.4411 -86.3597 35° Northeast 482 555 31,000 49 Climbing Minneapolis Center
12:20PM 44.5497 -86.2517 35° Northeast 483 556 31,000  Level Minneapolis Center
12:21PM 44.6547 -86.1486 35° Northeast 482 555 31,000  Level Minneapolis Center
12:22PM 44.7633 -86.0403 35° Northeast 479 551 31,000  Level Minneapolis Center
12:23PM 44.8711 -85.9311 36° Northeast 479 551 31,000  Level Minneapolis Center
12:24PM 45.0011 -85.7989 36° Northeast 480 552 31,000  Level Minneapolis Center
12:25PM 45.1097 -85.6903 35° Northeast 480 552 31,000 -49 Level Minneapolis Center
12:27PM 45.2108 -85.5847 36° Northeast 480 552 30,900 -49 Descending Minneapolis Center
12:28PM 45.3200 -85.4725 36° Northeast 484 557 30,900 49 Level Minneapolis Center
12:29PM 45.4294 -85.3606 36° Northeast 486 559 31,000 49 Climbing Minneapolis Center
12:30PM 45.5611 -85.2236 36° Northeast 488 562 31,000  Level Minneapolis Center
12:31PM 45.6694 -85.1117 36° Northeast 484 557 31,000  Level Minneapolis Center
12:32PM 45.7797 -84.9989 35° Northeast 485 558 31,000 -49 Level Minneapolis Center
12:33PM 45.8881 -84.8825 37° Northeast 487 560 30,900  Descending Minneapolis Center
12:34PM 45.9958 -84.7653 37° Northeast 487 560 31,000 49 Climbing Minneapolis Center
12:35PM 46.1056 -84.6511 36° Northeast 486 559 31,000  Level Minneapolis Center
12:36PM 46.2167 -84.5167 40° Northeast 490 564 31,000  Level Toronto Center
12:37PM 46.3167 -84.3833 43° Northeast 490 564 31,000  Level Toronto Center
12:38PM 46.4333 -84.3000 26° Northeast 480 552 31,000  Level Toronto Center
12:39PM 46.5500 -84.2333 21° North 470 541 31,000  Level Toronto Center
12:40PM 46.6833 -84.1500 23° Northeast 470 541 31,000  Level Toronto Center
12:41PM 46.8000 -84.0667 26° Northeast 480 552 31,000  Level Toronto Center
12:42PM 46.9167 -83.9833 26° Northeast 470 541 31,000  Level Toronto Center
12:43PM 47.0167 -83.8833 34° Northeast 470 541 31,000  Level Toronto Center
12:44PM 47.1500 -83.8000 23° Northeast 470 541 31,000  Level Toronto Center
12:45PM 47.2667 -83.7167 26° Northeast 470 541 31,000  Level Toronto Center
12:46PM 47.3833 -83.6167 30° Northeast 470 541 31,000  Level Toronto Center
12:47PM 47.5000 -83.5500 21° North 470 541 31,000  Level Toronto Center
12:48PM 47.6167 -83.4667 26° Northeast 470 541 31,000  Level Toronto Center
12:49PM 47.7333 -83.3667 30° Northeast 470 541 31,000  Level Toronto Center
12:50PM 47.8500 -83.3000 21° North 460 529 31,000  Level Toronto Center
12:51PM 47.9667 -83.2167 26° Northeast 470 541 31,000 450 Level Toronto Center
12:52PM 48.0833 -83.1167 30° Northeast 470 541 31,900 950 Climbing Toronto Center
12:53PM 48.2000 -83.0333 25° Northeast 460 529 32,900 550 Climbing Toronto Center
12:54PM 48.3167 -82.9667 21° North 460 529 33,000 50 Climbing Toronto Center
12:55PM 48.4167 -82.8667 34° Northeast 460 529 33,000  Level Toronto Center
12:56PM 48.5333 -82.7833 25° Northeast 450 518 33,000  Level Toronto Center
12:57PM 48.6500 -82.7000 25° Northeast 450 518 33,000  Level Toronto Center
12:57PM 48.7167 -82.7000 360° North 440 506 33,000  Level Montreal Center
12:58PM 48.8167 -82.6167 29° Northeast 440 506 33,000  Level Montreal Center
12:59PM 48.9333 -82.5167 29° Northeast 440 506 33,000  Level Montreal Center
01:00PM 49.0500 -82.4333 25° Northeast 440 506 33,000  Level Montreal Center
01:01PM 49.1500 -82.3500 29° Northeast 450 518 33,000  Level Montreal Center
01:02PM 49.2833 -82.2667 22° Northeast 450 518 33,000  Level Montreal Center
01:03PM 49.3833 -82.1667 33° Northeast 440 506 33,000  Level Montreal Center
01:04PM 49.4833 -82.0833 28° Northeast 440 506 33,000  Level Montreal Center
01:05PM 49.6000 -81.9833 29° Northeast 440 506 33,000  Level Montreal Center
01:06PM 49.7167 -81.9000 25° Northeast 440 506 33,000  Level Montreal Center
01:07PM 49.8167 -81.8333 23° Northeast 450 518 33,000  Level Montreal Center
01:08PM 49.9333 -81.7500 25° Northeast 440 506 33,000  Level Montreal Center
01:09PM 50.0500 -81.6500 29° Northeast 450 518 33,000  Level Montreal Center
01:10PM 50.1500 -81.5667 28° Northeast 450 518 33,000  Level Montreal Center
01:11PM 50.2833 -81.4667 26° Northeast 450 518 33,000  Level Montreal Center
01:12PM 50.3833 -81.3833 28° Northeast 450 518 33,000  Level Montreal Center
01:13PM 50.4833 -81.2833 32° Northeast 460 529 33,000  Level Montreal Center
01:14PM 50.6167 -81.2000 22° Northeast 460 529 33,000  Level Montreal Center
01:15PM 50.7167 -81.1000 32° Northeast 460 529 33,000  Level Montreal Center
01:16PM 50.8333 -81.0000 28° Northeast 460 529 33,000  Level Montreal Center
01:17PM 50.9500 -80.9167 24° Northeast 460 529 33,000  Level Montreal Center
01:18PM 51.0667 -80.8167 28° Northeast 460 529 33,000  Level Montreal Center
01:19PM 51.1667 -80.7167 32° Northeast 460 529 33,000  Level Montreal Center
01:20PM 51.3000 -80.6167 25° Northeast 470 541 33,000  Level Montreal Center
01:21PM 51.4167 -80.5333 24° Northeast 460 529 33,000  Level Montreal Center
01:22PM 51.5333 -80.4667 20° North 460 529 33,000  Level Montreal Center
01:23PM 51.6500 -80.3833 24° Northeast 460 529 33,000  Level Montreal Center
01:24PM 51.7833 -80.3000 21° North 460 529 33,000  Level Montreal Center
01:25PM 51.9000 -80.2167 24° Northeast 470 541 33,000  Level Montreal Center
01:26PM 52.0167 -80.1500 19° North 470 541 33,000  Level Montreal Center
01:27PM 52.1500 -80.0500 25° Northeast 470 541 33,000  Level Montreal Center
01:28PM 52.2667 -79.9833 19° North 470 541 33,000  Level Montreal Center
01:29PM 52.4000 -79.8833 25° Northeast 470 541 33,000  Level Montreal Center
01:30PM 52.5000 -79.8167 22° Northeast 480 552 33,000  Level Montreal Center
01:31PM 52.6333 -79.7167 24° Northeast 480 552 33,000  Level Montreal Center
01:32PM 52.7667 -79.6333 21° North 480 552 33,000  Level Montreal Center
01:33PM 52.8833 -79.5333 27° Northeast 480 552 33,000  Level Montreal Center
01:34PM 53.0000 -79.4667 19° North 480 552 33,000  Level Montreal Center
01:35PM 53.1333 -79.3667 24° Northeast 480 552 33,000  Level Montreal Center
01:36PM 53.2667 -79.2833 20° North 490 564 33,000  Level Montreal Center
01:37PM 53.3833 -79.1833 27° Northeast 490 564 33,000  Level Montreal Center
01:38PM 53.5000 -79.1000 23° Northeast 490 564 33,000  Level Montreal Center
01:39PM 53.6333 -79.0000 24° Northeast 490 564 33,000  Level Montreal Center
01:40PM 53.7833 -78.9333 15° North 510 587 33,000  Level Montreal Center
01:41PM 53.8833 -78.8500 26° Northeast 570 656 33,000  Level Montreal Center
01:42PM 54.0000 -78.7500 27° Northeast 490 564 33,000  Level Montreal Center
01:43PM 54.1333 -78.6333 27° Northeast 490 564 33,000  Level Montreal Center
01:44PM 54.2500 -78.5500 23° Northeast 490 564 33,000  Level Montreal Center
01:45PM 54.3833 -78.4833 16° North 490 564 33,000  Level Montreal Center
01:46PM 54.5000 -78.3667 30° Northeast 490 564 33,000  Level Montreal Center
01:47PM 54.6333 -78.2833 20° North 480 552 33,000  Level Montreal Center
01:48PM 54.7500 -78.1833 26° Northeast 490 564 33,000  Level Montreal Center
01:49PM 54.8667 -78.1000 22° Northeast 490 564 33,000  Level Montreal Center
01:50PM 54.9833 -77.9833 30° Northeast 490 564 33,000  Level Montreal Center
01:51PM 55.1333 -77.9000 18° North 490 564 33,000  Level Montreal Center
01:52PM 55.2667 -77.8833 North 480 552 33,000  Level Montreal Center
01:53PM 55.4000 -77.9167 352° North 480 552 33,000  Level Montreal Center
01:54PM 55.5333 -77.9167 360° North 480 552 33,000  Level Montreal Center
01:55PM 55.6667 -77.9333 356° North 480 552 33,000  Level Montreal Center
01:56PM 55.8000 -77.9000 North 480 552 33,000  Level Montreal Center
01:57PM 55.9333 -77.9167 356° North 480 552 33,000  Level Montreal Center
01:58PM 56.0667 -77.9167 360° North 480 552 33,000  Level Montreal Center
01:59PM 56.2000 -77.9333 356° North 480 552 33,000  Level Montreal Center
02:00PM 56.3333 -77.9000 North 480 552 33,000  Level Montreal Center
02:01PM 56.4667 -77.9167 356° North 490 564 33,000  Level Montreal Center
02:02PM 56.6000 -77.9167 360° North 490 564 33,000  Level Montreal Center
02:03PM 56.7500 -77.9167 360° North 490 564 33,000  Level Montreal Center
02:04PM 56.8833 -77.9000 North 490 564 33,000  Level Montreal Center
02:05PM 57.0333 -77.9000 360° North 490 564 33,000  Level Montreal Center
02:06PM 57.1500 -77.9167 356° North 490 564 33,000  Level Montreal Center
02:07PM 57.3000 -77.9167 360° North 490 564 33,000  Level Montreal Center
02:08PM 57.4333 -77.9333 356° North 490 564 33,000  Level Montreal Center
02:10PM 57.5667 -77.7833 31° Northeast 490 564 33,000  Level Edmonton Center
02:10PM 57.7000 -77.9167 332° Northwest 490 564 33,000  Level Montreal Center
02:11PM 57.8500 -77.9167 360° North 490 564 33,000  Level Montreal Center
02:12PM 57.9667 -77.9333 356° North 490 564 33,000  Level Montreal Center
02:13PM 58.1167 -77.9000 North 490 564 33,000  Level Montreal Center
02:14PM 58.2500 -77.9167 356° North 490 564 33,000  Level Montreal Center
02:15PM 58.3833 -77.9167 360° North 490 564 33,000  Level Montreal Center
02:16PM 58.5167 -77.9167 360° North 490 564 33,000  Level Montreal Center
02:17PM 58.6667 -77.9000 North 490 564 33,000  Level Montreal Center
02:18PM 58.8000 -77.9000 360° North 490 564 33,000  Level Montreal Center
02:19PM 58.9500 -77.9167 357° North 490 564 33,000  Level Montreal Center
02:20PM 59.0833 -77.9167 360° North 490 564 33,000  Level Montreal Center
02:21PM 59.2167 -77.9000 North 490 564 33,000  Level Montreal Center
02:22PM 59.3500 -77.9000 360° North 490 564 33,000  Level Montreal Center
02:23PM 59.4833 -77.9167 356° North 490 564 33,000  Level Montreal Center
02:24PM 59.6167 -77.9167 360° North 490 564 33,000  Level Montreal Center
02:25PM 59.7500 -77.8833 North 490 564 33,000  Level Montreal Center
02:26PM 59.8833 -77.9000 356° North 490 564 33,000  Level Montreal Center
02:27PM 60.0333 -77.9000 360° North 490 564 33,000  Level Montreal Center
02:28PM 60.1667 -77.9167 356° North 480 552 33,000  Level Montreal Center
02:29PM 60.3000 -77.8833 North 480 552 33,000  Level Montreal Center
02:30PM 60.4333 -77.9000 356° North 480 552 33,000  Level Montreal Center
02:31PM 60.5667 -77.9000 360° North 480 552 33,000  Level Montreal Center
02:32PM 60.7000 -77.9167 356° North 490 564 33,000  Level Montreal Center
02:33PM 60.8333 -77.9167 360° North 490 564 33,000  Level Montreal Center
02:35PM 60.9667 -77.7500 31° Northeast 480 552 33,000  Level Edmonton Center
02:36PM 61.1167 -77.7333 North 490 564 33,000  Level Edmonton Center
02:37PM 61.2500 -77.7333 360° North 480 552 33,000  Level Edmonton Center
02:37PM 61.3833 -77.9167 327° Northwest 480 552 33,000  Level Montreal Center
02:38PM 61.5167 -77.8833 North 480 552 33,000  Level Montreal Center
02:39PM 61.6500 -77.9000 357° North 490 564 33,000  Level Montreal Center
02:40PM 61.7833 -77.9000 360° North 480 552 33,000  Level Montreal Center
02:41PM 61.9333 -77.9167 357° North 480 552 33,000  Level Montreal Center
02:42PM 62.0667 -77.8833 North 480 552 33,000  Level Montreal Center
02:44PM 62.2000 -77.7333 28° Northeast 480 552 33,000  Level Edmonton Center
02:45PM 62.3167 -77.7333 360° North 480 552 33,000  Level Edmonton Center
02:46PM 62.4500 -77.7333 360° North 480 552 33,000  Level Edmonton Center
02:47PM 62.5833 -77.7000 North 480 552 33,000  Level Edmonton Center
02:47PM 62.7333 -77.8833 331° Northwest 480 552 33,000  Level Montreal Center
02:48PM 62.8667 -77.9000 357° North 480 552 33,000  Level Montreal Center
02:49PM 63.0000 -77.9000 360° North 480 552 33,000  Level Montreal Center
02:51PM 63.1167 -77.7167 35° Northeast 480 552 33,000  Level Edmonton Center
02:52PM 63.2500 -77.7333 357° North 480 552 33,000  Level Edmonton Center
02:53PM 63.4000 -77.7167 North 480 552 33,000  Level Edmonton Center
02:54PM 63.5333 -77.7167 360° North 480 552 33,000  Level Edmonton Center
02:55PM 63.6667 -77.7000 North 480 552 33,000  Level Edmonton Center
02:56PM 63.8000 -77.7167 357° North 480 552 33,000  Level Edmonton Center
02:57PM 63.9333 -77.7167 360° North 480 552 33,000  Level Edmonton Center
02:58PM 64.0667 -77.7167 360° North 480 552 33,000  Level Edmonton Center
02:59PM 64.2000 -77.7000 North 480 552 33,000  Level Edmonton Center
03:00PM 64.3333 -77.6833 North 480 552 33,000  Level Edmonton Center
03:01PM 64.4667 -77.7167 354° North 480 552 33,000  Level Edmonton Center
03:02PM 64.6000 -77.7000 North 480 552 33,000  Level Edmonton Center
03:03PM 64.7333 -77.6833 North 480 552 33,000  Level Edmonton Center
03:04PM 64.8667 -77.6833 360° North 480 552 33,000  Level Edmonton Center
03:05PM 65.0000 -77.7167 354° North 480 552 33,000  Level Edmonton Center
03:06PM 65.1333 -77.7000 North 480 552 33,000  Level Edmonton Center
03:07PM 65.2667 -77.6833 North 480 552 33,000  Level Edmonton Center
03:08PM 65.4000 -77.6833 360° North 480 552 33,000  Level Edmonton Center
03:09PM 65.5500 -77.7000 357° North 480 552 33,000  Level Edmonton Center
03:10PM 65.6667 -77.6833 North 480 552 33,000  Level Edmonton Center
03:11PM 65.8000 -77.6833 360° North 480 552 33,000  Level Edmonton Center
03:12PM 65.9500 -77.7000 357° North 480 552 33,000  Level Edmonton Center
03:13PM 66.0833 -77.6833 North 480 552 33,000  Level Edmonton Center
03:14PM 66.2167 -77.6667 North 480 552 33,000  Level Edmonton Center
03:15PM 66.3500 -77.6500 North 480 552 33,000  Level Edmonton Center
03:16PM 66.4833 -77.6833 354° North 480 552 33,000  Level Edmonton Center
03:17PM 66.6167 -77.6667 North 480 552 33,000  Level Edmonton Center
03:18PM 66.7500 -77.6500 North 480 552 33,000  Level Edmonton Center
03:19PM 66.8833 -77.6833 354° North 480 552 33,000  Level Edmonton Center
03:20PM 67.0333 -77.6667 North 480 552 33,000  Level Edmonton Center
03:21PM 67.1500 -77.6500 North 480 552 33,000  Level Edmonton Center
03:22PM 67.2833 -77.6833 354° North 480 552 33,000  Level Edmonton Center
03:23PM 67.4333 -77.6500 North 480 552 33,000  Level Edmonton Center
03:24PM 67.5500 -77.6500 360° North 480 552 33,000  Level Edmonton Center
03:25PM 67.6833 -77.6333 North 480 552 33,000  Level Edmonton Center
03:26PM 67.8167 -77.6667 355° North 480 552 33,000  Level Edmonton Center
03:27PM 67.9667 -77.6500 North 480 552 33,000  Level Edmonton Center
03:28PM 68.0833 -77.6333 North 480 552 33,000  Level Edmonton Center
03:29PM 68.2167 -77.6667 355° North 480 552 33,000  Level Edmonton Center
03:30PM 68.3500 -77.6500 North 480 552 33,000  Level Edmonton Center
03:31PM 68.4833 -77.6500 360° North 480 552 33,000  Level Edmonton Center
03:32PM 68.6167 -77.6167 North 480 552 33,000  Level Edmonton Center
03:33PM 68.7500 -77.6500 355° North 480 552 33,000  Level Edmonton Center
03:34PM 68.8833 -77.6333 North 480 552 33,000  Level Edmonton Center
03:35PM 69.0167 -77.6167 North 490 564 33,000  Level Edmonton Center
03:36PM 69.1500 -77.6333 357° North 490 564 33,000  Level Edmonton Center
03:37PM 69.2833 -77.6333 360° North 490 564 33,000  Level Edmonton Center
03:38PM 69.4333 -77.6500 358° North 490 564 33,000  Level Edmonton Center
03:39PM 69.5667 -77.6333 North 500 575 33,000  Level Edmonton Center
03:40PM 69.7000 -77.6000 North 500 575 33,000  Level Edmonton Center
03:41PM 69.8333 -77.6333 355° North 500 575 33,000  Level Edmonton Center
03:42PM 69.9833 -77.6000 North 500 575 33,000  Level Edmonton Center
03:43PM 70.1167 -77.5667 North 500 575 33,000  Level Edmonton Center
03:44PM 70.2500 -77.5500 North 500 575 33,000  Level Edmonton Center
03:45PM 70.3833 -77.5167 North 490 564 33,000  Level Edmonton Center
03:46PM 70.5333 -77.4833 North 490 564 33,000  Level Edmonton Center
03:47PM 70.6500 -77.4833 360° North 490 564 33,000  Level Edmonton Center
03:48PM 70.8000 -77.4333 North 490 564 33,000  Level Edmonton Center
03:49PM 70.9333 -77.3667 North 490 564 33,000  Level Edmonton Center
03:50PM 71.0667 -77.3500 North 480 552 33,000  Level Edmonton Center
03:51PM 71.2000 -77.3000 North 490 564 33,000  Level Edmonton Center
03:52PM 71.3500 -77.2667 North 490 564 33,000  Level Edmonton Center
03:53PM 71.4667 -77.2500 North 480 552 33,000  Level Edmonton Center
03:54PM 71.6167 -77.2167 North 480 552 33,000  Level Edmonton Center
03:55PM 71.7333 -77.1500 10° North 490 564 33,000  Level Edmonton Center
03:56PM 71.8667 -77.1167 North 490 564 33,000  Level Edmonton Center
03:57PM 72.0167 -77.0667 North 490 564 33,000  Level Edmonton Center
03:58PM 72.1333 -77.0500 North 490 564 33,000  Level Edmonton Center
04:22PM 75.0000 -76.3333 North 490 564 33,000  Level ETMS Enhanced Traffic Management System
04:23PM 75.5967 -76.0700 North  Level FlightAware Approximate
04:24PM 75.7352 -76.0058 North  Level FlightAware Approximate
04:25PM 75.8736 -75.9404 North  Level FlightAware Approximate
04:26PM 76.0120 -75.8737 North  Level FlightAware Approximate
04:27PM 76.1504 -75.8057 North  Level FlightAware Approximate
04:28PM 76.2192 -75.7714 North 490 564 33,000  Level FlightAware Transoceanic
04:29PM 76.3546 -75.7029 North 490 564 33,000  Level FlightAware Transoceanic
04:30PM 76.4899 -75.6331 North 490 564 33,000  Level FlightAware Transoceanic
04:31PM 76.6253 -75.5618 North 490 564 33,000  Level FlightAware Transoceanic
04:32PM 76.7606 -75.4892 North 490 564 33,000  Level FlightAware Transoceanic
04:33PM 76.8959 -75.4150 North 490 564 33,000  Level FlightAware Transoceanic
04:34PM 77.0312 -75.3394 North 490 564 33,000  Level FlightAware Transoceanic
04:35PM 77.1664 -75.2622 North 490 564 33,000  Level FlightAware Transoceanic
04:36PM 77.3016 -75.1833 North 490 564 33,000  Level FlightAware Transoceanic
04:37PM 77.4369 -75.1028 North 490 564 33,000  Level FlightAware Transoceanic
04:38PM 77.5720 -75.0206 North 490 564 33,000  Level FlightAware Transoceanic
04:39PM 77.7072 -74.9365 North 490 564 33,000  Level FlightAware Transoceanic
04:40PM 77.8423 -74.8507 North 490 564 33,000  Level FlightAware Transoceanic
04:41PM 77.9774 -74.7629 North 490 564 33,000  Level FlightAware Transoceanic
04:42PM 78.1125 -74.6732 North 490 564 33,000  Level FlightAware Transoceanic
04:43PM 78.2476 -74.5815 North 490 564 33,000  Level FlightAware Transoceanic
04:44PM 78.3826 -74.4876 North 490 564 33,000  Level FlightAware Transoceanic
04:45PM 78.5175 -74.3916 North 490 564 33,000  Level FlightAware Transoceanic
04:46PM 78.6525 -74.2933 North 490 564 33,000  Level FlightAware Transoceanic
04:47PM 78.7874 -74.1927 North 490 564 33,000  Level FlightAware Transoceanic
04:48PM 78.9223 -74.0897 North 490 564 33,000  Level FlightAware Transoceanic
04:49PM 79.0572 -73.9841 North 490 564 33,000  Level FlightAware Transoceanic
04:50PM 79.1920 -73.8760 North 490 564 33,000  Level FlightAware Transoceanic
04:51PM 79.3268 -73.7651 North 490 564 33,000  Level FlightAware Transoceanic
04:52PM 79.4615 -73.6515 North 490 564 33,000  Level FlightAware Transoceanic
04:53PM 79.5962 -73.5350 North 490 564 33,000  Level FlightAware Transoceanic
04:54PM 79.7308 -73.4154 North 490 564 33,000  Level FlightAware Transoceanic
04:55PM 79.8654 -73.2926 North 490 564 33,000 -24 Level FlightAware Transoceanic
04:56PM 80.0030 -73.1638 North  Level FlightAware Approximate
04:57PM 80.0059 -73.1604 10° North  Level FlightAware Approximate
04:58PM 80.1430 -73.0129 10° North  Level FlightAware Approximate
04:59PM 80.2799 -72.8614 11° North  Level FlightAware Approximate
05:00PM 80.4168 -72.7056 11° North  Level FlightAware Approximate
05:01PM 80.5536 -72.5453 11° North  Level FlightAware Approximate
05:02PM 80.6904 -72.3803 11° North  Level FlightAware Approximate
05:03PM 80.8271 -72.2105 11° North  Level FlightAware Approximate
05:04PM 80.9637 -72.0356 11° North  Level FlightAware Approximate
05:05PM 81.1002 -71.8553 12° North  Level FlightAware Approximate
05:06PM 81.2366 -71.6695 12° North  Level FlightAware Approximate
05:07PM 81.3729 -71.4778 12° North  Level FlightAware Approximate
05:08PM 81.5091 -71.2801 12° North  Level FlightAware Approximate
05:09PM 81.6452 -71.0759 12° North  Level FlightAware Approximate
05:10PM 81.7812 -70.8651 12° North  Level FlightAware Approximate
05:11PM 81.9172 -70.6472 13° North  Level FlightAware Approximate
05:12PM 82.0529 -70.4219 13° North  Level FlightAware Approximate
05:13PM 82.1886 -70.1888 13° North  Level FlightAware Approximate
05:14PM 82.3241 -69.9475 13° North  Level FlightAware Approximate
05:15PM 82.4595 -69.6977 14° North  Level FlightAware Approximate
05:16PM 82.5947 -69.4387 14° North  Level FlightAware Approximate
05:17PM 82.7298 -69.1702 14° North  Level FlightAware Approximate
05:18PM 82.8647 -68.8915 14° North  Level FlightAware Approximate
05:19PM 82.9995 -68.6022 15° North  Level FlightAware Approximate
05:20PM 83.1340 -68.3016 15° North  Level FlightAware Approximate
05:21PM 83.2684 -67.9891 15° North  Level FlightAware Approximate
05:22PM 83.4025 -67.6639 16° North  Level FlightAware Approximate
05:23PM 83.5365 -67.3252 16° North  Level FlightAware Approximate
05:24PM 83.6702 -66.9723 16° North  Level FlightAware Approximate
05:25PM 83.8037 -66.6043 17° North  Level FlightAware Approximate
05:26PM 83.9369 -66.2201 17° North  Level FlightAware Approximate
05:27PM 84.0698 -65.8188 17° North  Level FlightAware Approximate
05:28PM 84.2024 -65.3991 18° North  Level FlightAware Approximate
05:29PM 84.3346 -64.9599 18° North  Level FlightAware Approximate
05:30PM 84.4666 -64.4998 19° North  Level FlightAware Approximate
05:31PM 84.5982 -64.0173 19° North  Level FlightAware Approximate
05:32PM 84.7293 -63.5108 20° North  Level FlightAware Approximate
05:33PM 84.8601 -62.9786 20° North  Level FlightAware Approximate
05:34PM 84.9903 -62.4187 21° North  Level FlightAware Approximate
05:35PM 85.1201 -61.8291 21° North  Level FlightAware Approximate
05:36PM 85.2493 -61.2074 22° Northeast  Level FlightAware Approximate
05:37PM 85.3780 -60.5512 22° Northeast  Level FlightAware Approximate
05:38PM 85.5060 -59.8585 23° Northeast  Level FlightAware Approximate
05:39PM 85.6335 -59.1305 23° Northeast  Level FlightAware Approximate
05:40PM 85.7603 -58.3588 24° Northeast  Level FlightAware Approximate
05:41PM 85.8863 -57.5399 25° Northeast  Level FlightAware Approximate
05:42PM 86.0113 -56.6695 26° Northeast  Level FlightAware Approximate
05:43PM 86.1354 -55.7431 27° Northeast  Level FlightAware Approximate
05:44PM 86.2585 -54.7556 28° Northeast  Level FlightAware Approximate
05:45PM 86.3803 -53.7013 29° Northeast  Level FlightAware Approximate
05:46PM 86.5008 -52.5742 30° Northeast  Level FlightAware Approximate
05:47PM 86.6199 -51.3672 31° Northeast  Level FlightAware Approximate
05:48PM 86.7374 -50.0728 32° Northeast  Level FlightAware Approximate
05:49PM 86.8531 -48.6826 33° Northeast  Level FlightAware Approximate
05:50PM 86.9668 -47.1873 35° Northeast  Level FlightAware Approximate
05:51PM 87.0782 -45.5769 36° Northeast  Level FlightAware Approximate
05:52PM 87.1872 -43.8403 38° Northeast  Level FlightAware Approximate
05:53PM 87.2935 -41.9658 39° Northeast  Level FlightAware Approximate
05:54PM 87.3965 -39.9405 41° Northeast  Level FlightAware Approximate
05:55PM 87.4961 -37.7514 43° Northeast  Level FlightAware Approximate
05:56PM 87.5917 -35.3849 46° Northeast  Level FlightAware Approximate
05:57PM 87.6829 -32.8276 48° Northeast  Level FlightAware Approximate
05:58PM 87.7691 -30.0669 50° Northeast  Level FlightAware Approximate
05:59PM 87.8497 -27.0920 53° Northeast  Level FlightAware Approximate
06:00PM 87.9241 -23.8948 56° Northeast  Level FlightAware Approximate
06:01PM 87.9916 -20.4717 59° Northeast  Level FlightAware Approximate
06:02PM 88.0726 -17.1783 52° Northeast  Level FlightAware Approximate
06:03PM 88.1500 -13.6607 55° Northeast  Level FlightAware Approximate
06:04PM 88.2198 -9.8517 58° Northeast  Level FlightAware Approximate
06:05PM 88.2812 -5.7516 62° Northeast  Level FlightAware Approximate
06:06PM 88.3332 -1.3723 66° East  Level FlightAware Approximate
06:07PM 88.3748 3.2596 70° East  Level FlightAware Approximate
06:08PM 88.4053 8.1015 75° East  Level FlightAware Approximate
06:09PM 88.4240 13.0949 80° East  Level FlightAware Approximate
06:10PM 88.4305 18.1689 85° East  Level FlightAware Approximate
06:11PM 88.4247 23.2452 90° East  Level FlightAware Approximate
06:12PM 88.4067 28.2454 95° East  Level FlightAware Approximate
06:13PM 88.3769 33.0977 100° East  Level FlightAware Approximate
06:14PM 88.3359 37.7431 105° East  Level FlightAware Approximate
06:15PM 88.2845 42.1378 109° East  Level FlightAware Approximate
06:16PM 88.2236 46.2545 114° Southeast  Level FlightAware Approximate
06:17PM 88.1542 50.0804 118° Southeast  Level FlightAware Approximate
06:18PM 88.0772 53.6147 122° Southeast  Level FlightAware Approximate
06:19PM 87.9935 56.8657 125° Southeast  Level FlightAware Approximate
06:20PM 87.9039 59.8477 129° Southeast  Level FlightAware Approximate
06:21PM 87.8091 62.5795 132° Southeast  Level FlightAware Approximate
06:22PM 87.7097 65.0798 134° Southeast  Level FlightAware Approximate
06:23PM 87.6063 67.3683 137° Southeast  Level FlightAware Approximate
06:24PM 87.4995 69.4644 139° Southeast  Level FlightAware Approximate
06:25PM 87.3896 71.3866 141° Southeast  Level FlightAware Approximate
06:26PM 87.2769 73.1517 143° Southeast  Level FlightAware Approximate
06:27PM 87.1619 74.7753 145° Southeast  Level FlightAware Approximate
06:28PM 87.0449 76.2714 146° Southeast  Level FlightAware Approximate
06:29PM 86.9259 77.6528 148° Southeast  Level FlightAware Approximate
06:30PM 86.8053 78.9306 149° Southeast  Level FlightAware Approximate
06:31PM 86.6833 80.1151 151° Southeast  Level FlightAware Approximate
06:32PM 86.5599 81.2151 152° Southeast  Level FlightAware Approximate
06:33PM 86.4353 82.2387 153° Southeast  Level FlightAware Approximate
06:34PM 86.3097 83.1930 154° Southeast  Level FlightAware Approximate
06:35PM 86.1832 84.0843 155° Southeast  Level FlightAware Approximate
06:36PM 86.0557 84.9183 156° South  Level FlightAware Approximate
06:37PM 85.9275 85.7000 157° South  Level FlightAware Approximate
06:38PM 85.7986 86.4340 157° South  Level FlightAware Approximate
06:39PM 85.6690 87.1242 158° South  Level FlightAware Approximate
06:40PM 85.5389 87.7743 159° South  Level FlightAware Approximate
06:41PM 85.4145 88.3589 159° South  Level FlightAware Approximate
06:42PM 85.2896 88.9126 160° South  Level FlightAware Approximate
06:43PM 85.1643 89.4378 161° South  Level FlightAware Approximate
06:44PM 85.0387 89.9364 161° South  Level FlightAware Approximate
06:45PM 84.9127 90.4105 162° South  Level FlightAware Approximate
06:46PM 84.7863 90.8616 162° South  Level FlightAware Approximate
06:47PM 84.6597 91.2915 162° South  Level FlightAware Approximate
06:48PM 84.5327 91.7014 163° South  Level FlightAware Approximate
06:49PM 84.4055 92.0928 163° South  Level FlightAware Approximate
06:50PM 84.2781 92.4669 164° South  Level FlightAware Approximate
06:51PM 84.1504 92.8246 164° South  Level FlightAware Approximate
06:52PM 84.0225 93.1672 164° South  Level FlightAware Approximate
06:53PM 83.8944 93.4954 165° South  Level FlightAware Approximate
06:54PM 83.7661 93.8101 165° South  Level FlightAware Approximate
06:55PM 83.6376 94.1122 165° South  Level FlightAware Approximate
06:56PM 83.5090 94.4024 166° South  Level FlightAware Approximate
06:57PM 83.3802 94.6814 166° South  Level FlightAware Approximate
06:58PM 83.2513 94.9497 166° South  Level FlightAware Approximate
06:59PM 83.1222 95.2081 167° South  Level FlightAware Approximate
07:00PM 82.9929 95.4569 167° South  Level FlightAware Approximate
07:01PM 82.8636 95.6968 167° South  Level FlightAware Approximate
07:02PM 82.7341 95.9282 167° South  Level FlightAware Approximate
07:03PM 82.6046 96.1520 168° South  Level FlightAware Approximate
07:04PM 82.4749 96.3686 168° South  Level FlightAware Approximate
07:05PM 82.3451 96.5778 168° South  Level FlightAware Approximate
07:06PM 82.2153 96.7801 168° South  Level FlightAware Approximate
07:07PM 82.0853 96.9758 168° South  Level FlightAware Approximate
07:08PM 81.9553 97.1652 168° South  Level FlightAware Approximate
07:09PM 81.8251 97.3487 169° South  Level FlightAware Approximate
07:10PM 81.6949 97.5264 169° South  Level FlightAware Approximate
07:11PM 81.5647 97.6986 169° South  Level FlightAware Approximate
07:12PM 81.4343 97.8657 169° South  Level FlightAware Approximate
07:13PM 81.3039 98.0278 169° South  Level FlightAware Approximate
07:14PM 81.1734 98.1851 170° South  Level FlightAware Approximate
07:15PM 81.0428 98.3379 170° South  Level FlightAware Approximate
07:16PM 80.9122 98.4864 170° South  Level FlightAware Approximate
07:17PM 80.7815 98.6299 170° South  Level FlightAware Approximate
07:18PM 80.6508 98.7695 170° South  Level FlightAware Approximate
07:19PM 80.5200 98.9052 170° South  Level FlightAware Approximate
07:20PM 80.3891 99.0373 170° South  Level FlightAware Approximate
07:21PM 80.2582 99.1658 171° South  Level FlightAware Approximate
07:22PM 80.1273 99.2910 171° South  Level FlightAware Approximate
07:23PM 79.9963 99.4129 171° South  Level FlightAware Approximate
07:24PM 79.8652 99.5317 171° South  Level FlightAware Approximate
07:25PM 79.7341 99.6475 171° South  Level FlightAware Approximate
07:26PM 79.6030 99.7605 171° South  Level FlightAware Approximate
07:27PM 79.4714 99.8710 171° South  Level FlightAware Approximate
07:28PM 79.3397 99.9788 171° South  Level FlightAware Approximate
07:29PM 79.2080 100.0840 171° South  Level FlightAware Approximate
07:30PM 79.0763 100.1867 172° South  Level FlightAware Approximate
07:31PM 78.9445 100.2870 172° South  Level FlightAware Approximate
07:32PM 78.8128 100.3850 172° South  Level FlightAware Approximate
07:33PM 78.6809 100.4807 172° South  Level FlightAware Approximate
07:34PM 78.5491 100.5742 172° South  Level FlightAware Approximate
07:35PM 78.4172 100.6656 172° South  Level FlightAware Approximate
07:36PM 78.2853 100.7550 172° South  Level FlightAware Approximate
07:37PM 78.1533 100.8425 172° South  Level FlightAware Approximate
07:38PM 78.0213 100.9280 172° South  Level FlightAware Approximate
07:39PM 77.8894 101.0117 172° South  Level FlightAware Approximate
07:40PM 77.7573 101.0936 173° South  Level FlightAware Approximate
07:41PM 77.6253 101.1738 173° South  Level FlightAware Approximate
07:42PM 77.4932 101.2523 173° South  Level FlightAware Approximate
07:43PM 77.3612 101.3293 173° South  Level FlightAware Approximate
07:44PM 77.2290 101.4046 173° South  Level FlightAware Approximate
07:45PM 77.0969 101.4784 173° South  Level FlightAware Approximate
07:46PM 76.9648 101.5508 173° South  Level FlightAware Approximate
07:47PM 76.8326 101.6217 173° South  Level FlightAware Approximate
07:48PM 76.7004 101.6913 173° South  Level FlightAware Approximate
07:49PM 76.5682 101.7595 173° South  Level FlightAware Approximate
07:50PM 76.4360 101.8264 173° South  Level FlightAware Approximate
07:51PM 76.3037 101.8920 173° South  Level FlightAware Approximate
07:52PM 76.1715 101.9564 173° South  Level FlightAware Approximate
07:53PM 76.0392 102.0196 173° South  Level FlightAware Approximate
07:54PM 75.9069 102.0816 173° South  Level FlightAware Approximate
07:55PM 75.7744 102.1426 174° South  Level FlightAware Approximate
07:56PM 75.6420 102.2025 174° South  Level FlightAware Approximate
07:57PM 75.5095 102.2613 174° South  Level FlightAware Approximate
07:58PM 75.3770 102.3191 174° South  Level FlightAware Approximate
07:59PM 75.2444 102.3758 174° South  Level FlightAware Approximate
08:00PM 75.1119 102.4316 174° South  Level FlightAware Approximate
08:01PM 74.9794 102.4864 174° South  Level FlightAware Approximate
08:02PM 74.8468 102.5402 174° South  Level FlightAware Approximate
08:03PM 74.7142 102.5931 174° South  Level FlightAware Approximate
08:04PM 74.5816 102.6452 174° South  Level FlightAware Approximate
08:05PM 74.4490 102.6964 174° South  Level FlightAware Approximate
08:06PM 74.3166 102.7467 174° South  Level FlightAware Approximate
08:07PM 74.1841 102.7962 174° South  Level FlightAware Approximate
08:08PM 74.0517 102.8448 174° South  Level FlightAware Approximate
08:09PM 73.9192 102.8927 174° South  Level FlightAware Approximate
08:10PM 73.7867 102.9398 174° South  Level FlightAware Approximate
08:11PM 73.6542 102.9862 174° South  Level FlightAware Approximate
08:12PM 73.5216 103.0319 174° South  Level FlightAware Approximate
08:13PM 73.3891 103.0768 174° South  Level FlightAware Approximate
08:14PM 73.2566 103.1210 175° South  Level FlightAware Approximate
08:15PM 73.1240 103.1646 175° South  Level FlightAware Approximate
08:16PM 72.9915 103.2075 175° South  Level FlightAware Approximate
08:17PM 72.8589 103.2498 175° South  Level FlightAware Approximate
08:18PM 72.7263 103.2915 175° South  Level FlightAware Approximate
08:19PM 72.5938 103.3325 175° South  Level FlightAware Approximate
08:20PM 72.4612 103.3729 175° South  Level FlightAware Approximate
08:21PM 72.3286 103.4128 175° South  Level FlightAware Approximate
08:22PM 72.1960 103.4520 175° South  Level FlightAware Approximate
08:23PM 72.0633 103.4907 175° South  Level FlightAware Approximate
08:24PM 71.9307 103.5289 175° South  Level FlightAware Approximate
08:25PM 71.7981 103.5665 175° South  Level FlightAware Approximate
08:26PM 71.6655 103.6036 175° South  Level FlightAware Approximate
08:27PM 71.5328 103.6401 175° South  Level FlightAware Approximate
08:28PM 71.4002 103.6762 175° South  Level FlightAware Approximate
08:29PM 71.2675 103.7118 175° South  Level FlightAware Approximate
08:30PM 71.1349 103.7469 175° South  Level FlightAware Approximate
08:31PM 71.0022 103.7815 175° South  Level FlightAware Approximate
08:32PM 70.8695 103.8157 175° South  Level FlightAware Approximate
08:33PM 70.7368 103.8494 175° South  Level FlightAware Approximate
08:34PM 70.6041 103.8826 175° South  Level FlightAware Approximate
08:35PM 70.4715 103.9155 175° South  Level FlightAware Approximate
08:36PM 70.3388 103.9479 175° South  Level FlightAware Approximate
08:37PM 70.2061 103.9799 175° South  Level FlightAware Approximate
08:38PM 70.0733 104.0114 175° South  Level FlightAware Approximate
08:39PM 69.9406 104.0426 175° South  Level FlightAware Approximate
08:40PM 69.8079 104.0734 175° South  Level FlightAware Approximate
08:41PM 69.6752 104.1038 175° South  Level FlightAware Approximate
08:42PM 69.5424 104.1338 175° South  Level FlightAware Approximate
08:43PM 69.4097 104.1635 176° South  Level FlightAware Approximate
08:44PM 69.2770 104.1928 176° South  Level FlightAware Approximate
08:45PM 69.1442 104.2217 176° South  Level FlightAware Approximate
08:46PM 69.0115 104.2503 176° South  Level FlightAware Approximate
08:47PM 68.8787 104.2785 176° South  Level FlightAware Approximate
08:48PM 68.7459 104.3064 176° South  Level FlightAware Approximate
08:49PM 68.6132 104.3340 176° South  Level FlightAware Approximate
08:50PM 68.4804 104.3612 176° South  Level FlightAware Approximate
08:51PM 68.3476 104.3882 176° South  Level FlightAware Approximate
08:52PM 68.2149 104.4148 176° South  Level FlightAware Approximate
08:53PM 68.0821 104.4411 176° South  Level FlightAware Approximate
08:54PM 67.9493 104.4671 176° South  Level FlightAware Approximate
08:55PM 67.8165 104.4928 176° South  Level FlightAware Approximate
08:56PM 67.6837 104.5182 176° South  Level FlightAware Approximate
08:57PM 67.5509 104.5433 176° South  Level FlightAware Approximate
08:58PM 67.4181 104.5682 176° South  Level FlightAware Approximate
08:59PM 67.2853 104.5928 176° South  Level FlightAware Approximate
09:00PM 67.1523 104.6171 176° South  Level FlightAware Approximate
09:01PM 67.0194 104.6412 176° South  Level FlightAware Approximate
09:02PM 66.8864 104.6650 176° South  Level FlightAware Approximate
09:03PM 66.7534 104.6885 176° South  Level FlightAware Approximate
09:04PM 66.6204 104.7118 176° South  Level FlightAware Approximate
09:05PM 66.4874 104.7349 176° South  Level FlightAware Approximate
09:06PM 66.3545 104.7577 176° South  Level FlightAware Approximate
09:07PM 66.2215 104.7802 176° South  Level FlightAware Approximate
09:08PM 66.0885 104.8026 176° South  Level FlightAware Approximate
09:09PM 65.9555 104.8247 176° South  Level FlightAware Approximate
09:10PM 65.8225 104.8465 176° South  Level FlightAware Approximate
09:11PM 65.6895 104.8681 176° South  Level FlightAware Approximate
09:12PM 65.5565 104.8896 176° South  Level FlightAware Approximate
09:13PM 65.4235 104.9108 176° South  Level FlightAware Approximate
09:14PM 65.2905 104.9318 176° South  Level FlightAware Approximate
09:15PM 65.1574 104.9525 176° South  Level FlightAware Approximate
09:16PM 65.0244 104.9731 176° South  Level FlightAware Approximate
09:17PM 64.8914 104.9935 176° South  Level FlightAware Approximate
09:18PM 64.7584 105.0136 176° South  Level FlightAware Approximate
09:19PM 64.6253 105.0336 176° South  Level FlightAware Approximate
09:20PM 64.4923 105.0534 176° South  Level FlightAware Approximate
09:21PM 64.3593 105.0729 176° South  Level FlightAware Approximate
09:22PM 64.2262 105.0923 176° South  Level FlightAware Approximate
09:23PM 64.0932 105.1115 176° South  Level FlightAware Approximate
09:24PM 63.9602 105.1306 176° South  Level FlightAware Approximate
09:25PM 63.8271 105.1494 176° South  Level FlightAware Approximate
09:26PM 63.6941 105.1681 176° South  Level FlightAware Approximate
09:27PM 63.5610 105.1866 176° South  Level FlightAware Approximate
09:28PM 63.4280 105.2049 176° South  Level FlightAware Approximate
09:29PM 63.2949 105.2230 176° South  Level FlightAware Approximate
09:30PM 63.1619 105.2410 177° South  Level FlightAware Approximate
09:31PM 63.0288 105.2588 177° South  Level FlightAware Approximate
09:32PM 62.8958 105.2765 177° South  Level FlightAware Approximate
09:33PM 62.7627 105.2940 177° South  Level FlightAware Approximate
09:34PM 62.6297 105.3114 177° South  Level FlightAware Approximate
09:35PM 62.4966 105.3288 177° South  Level FlightAware Approximate
09:36PM 62.3636 105.3460 177° South  Level FlightAware Approximate
09:37PM 62.2305 105.3631 177° South  Level FlightAware Approximate
09:38PM 62.0974 105.3800 177° South  Level FlightAware Approximate
09:39PM 61.9644 105.3968 177° South  Level FlightAware Approximate
09:40PM 61.8313 105.4134 177° South  Level FlightAware Approximate
09:41PM 61.6982 105.4298 177° South  Level FlightAware Approximate
09:42PM 61.5652 105.4462 177° South  Level FlightAware Approximate
09:43PM 61.4321 105.4624 177° South  Level FlightAware Approximate
09:44PM 61.2990 105.4784 177° South  Level FlightAware Approximate
09:45PM 61.1659 105.4943 177° South  Level FlightAware Approximate
09:46PM 61.0328 105.5101 177° South  Level FlightAware Approximate
09:47PM 60.8997 105.5258 177° South  Level FlightAware Approximate
09:48PM 60.7667 105.5413 177° South  Level FlightAware Approximate
09:49PM 60.6336 105.5567 177° South  Level FlightAware Approximate
09:50PM 60.5006 105.5720 177° South  Level FlightAware Approximate
09:51PM 60.3677 105.5871 177° South  Level FlightAware Approximate
09:52PM 60.2348 105.6021 177° South  Level FlightAware Approximate
09:53PM 60.1018 105.6170 177° South  Level FlightAware Approximate
09:54PM 59.9689 105.6317 177° South  Level FlightAware Approximate
09:55PM 59.8360 105.6464 177° South  Level FlightAware Approximate
09:56PM 59.7030 105.6609 177° South  Level FlightAware Approximate
09:57PM 59.5701 105.6753 177° South  Level FlightAware Approximate
09:58PM 59.4371 105.6896 177° South  Level FlightAware Approximate
09:59PM 59.3042 105.7038 177° South  Level FlightAware Approximate
10:00PM 59.1712 105.7179 177° South  Level FlightAware Approximate
10:01PM 59.0383 105.7318 177° South  Level FlightAware Approximate
10:02PM 58.9053 105.7457 177° South  Level FlightAware Approximate
10:03PM 58.7724 105.7595 177° South  Level FlightAware Approximate
10:04PM 58.6394 105.7731 177° South  Level FlightAware Approximate
10:05PM 58.5065 105.7867 177° South  Level FlightAware Approximate
10:06PM 58.3735 105.8001 177° South  Level FlightAware Approximate
10:07PM 58.2406 105.8134 177° South  Level FlightAware Approximate
10:08PM 58.1076 105.8267 177° South  Level FlightAware Approximate
10:09PM 57.9746 105.8398 177° South  Level FlightAware Approximate
10:10PM 57.8417 105.8529 177° South  Level FlightAware Approximate
10:11PM 57.7087 105.8658 177° South  Level FlightAware Approximate
10:12PM 57.5757 105.8787 177° South  Level FlightAware Approximate
10:13PM 57.4428 105.8914 177° South  Level FlightAware Approximate
10:14PM 57.3098 105.9041 177° South  Level FlightAware Approximate
10:15PM 57.1768 105.9167 177° South  Level FlightAware Approximate
10:16PM 57.0439 105.9292 177° South  Level FlightAware Approximate
10:17PM 56.9109 105.9416 177° South  Level FlightAware Approximate
10:18PM 56.7779 105.9539 177° South  Level FlightAware Approximate
10:19PM 56.6450 105.9661 177° South  Level FlightAware Approximate
10:20PM 56.5120 105.9783 177° South  Level FlightAware Approximate
10:21PM 56.3790 105.9903 177° South  Level FlightAware Approximate
10:22PM 56.2460 106.0023 177° South  Level FlightAware Approximate
10:23PM 56.1130 106.0142 177° South  Level FlightAware Approximate
10:24PM 55.9800 106.0260 177° South  Level FlightAware Approximate
10:25PM 55.8471 106.0377 177° South  Level FlightAware Approximate
10:26PM 55.7141 106.0494 177° South  Level FlightAware Approximate
10:27PM 55.5811 106.0610 177° South  Level FlightAware Approximate
10:28PM 55.4481 106.0724 177° South  Level FlightAware Approximate
10:29PM 55.3151 106.0838 177° South  Level FlightAware Approximate
10:30PM 55.1822 106.0952 177° South  Level FlightAware Approximate
10:31PM 55.0492 106.1064 177° South  Level FlightAware Approximate
10:32PM 54.9162 106.1176 177° South  Level FlightAware Approximate
10:33PM 54.7832 106.1287 177° South  Level FlightAware Approximate
10:34PM 54.6502 106.1398 177° South  Level FlightAware Approximate
10:35PM 54.5172 106.1507 177° South  Level FlightAware Approximate
10:36PM 54.3842 106.1616 177° South  Level FlightAware Approximate
10:37PM 54.2512 106.1724 177° South  Level FlightAware Approximate
10:38PM 54.1182 106.1832 177° South  Level FlightAware Approximate
10:39PM 53.9852 106.1939 177° South  Level FlightAware Approximate
10:40PM 53.8522 106.2046 177° South  Level FlightAware Approximate
10:41PM 53.7192 106.2152 177° South  Level FlightAware Approximate
10:42PM 53.5863 106.2257 177° South  Level FlightAware Approximate
10:43PM 53.4533 106.2362 177° South  Level FlightAware Approximate
10:44PM 53.3203 106.2466 177° South  Level FlightAware Approximate
10:45PM 53.1872 106.2570 177° South  Level FlightAware Approximate
10:46PM 53.0542 106.2672 177° South  Level FlightAware Approximate
10:47PM 52.9212 106.2774 177° South  Level FlightAware Approximate
10:48PM 52.7882 106.2876 177° South  Level FlightAware Approximate
10:49PM 52.6553 106.2977 177° South  Level FlightAware Approximate
10:50PM 52.5223 106.3077 177° South  Level FlightAware Approximate
10:51PM 52.3893 106.3176 177° South  Level FlightAware Approximate
10:52PM 52.2562 106.3275 177° South  Level FlightAware Approximate
10:53PM 52.1232 106.3374 177° South  Level FlightAware Approximate
10:54PM 51.9902 106.3472 177° South  Level FlightAware Approximate
10:55PM 51.8572 106.3569 177° South  Level FlightAware Approximate
10:56PM 51.7242 106.3666 177° South  Level FlightAware Approximate
10:57PM 51.5912 106.3762 177° South  Level FlightAware Approximate
10:58PM 51.4582 106.3857 177° South  Level FlightAware Approximate
10:59PM 51.3252 106.3952 177° South  Level FlightAware Approximate
11:00PM 51.1922 106.4047 177° South  Level FlightAware Approximate
11:01PM 51.0592 106.4141 177° South  Level FlightAware Approximate
11:02PM 50.9261 106.4234 177° South  Level FlightAware Approximate
11:03PM 50.7931 106.4327 177° South  Level FlightAware Approximate
11:04PM 50.6601 106.4419 177° South  Level FlightAware Approximate
11:05PM 50.5271 106.4511 177° South  Level FlightAware Approximate
11:06PM 50.3941 106.4602 177° South  Level FlightAware Approximate
11:07PM 50.2710 106.5075 138° Southeast  Level FlightAware Approximate
11:08PM 50.1720 106.6466 138° Southeast  Level FlightAware Approximate
11:09PM 50.0729 106.7852 138° Southeast  Level FlightAware Approximate
11:10PM 49.9735 106.9231 138° Southeast  Level FlightAware Approximate
11:11PM 49.8740 107.0605 138° Southeast  Level FlightAware Approximate
11:12PM 49.7743 107.1974 138° Southeast  Level FlightAware Approximate
11:13PM 49.6745 107.3336 139° Southeast  Level FlightAware Approximate
11:14PM 49.5745 107.4694 139° Southeast  Level FlightAware Approximate
11:15PM 49.4744 107.6045 139° Southeast  Level FlightAware Approximate
11:16PM 49.3741 107.7391 139° Southeast  Level FlightAware Approximate
11:17PM 49.2736 107.8732 139° Southeast  Level FlightAware Approximate
11:18PM 49.1730 108.0067 139° Southeast  Level FlightAware Approximate
11:19PM 49.0722 108.1397 139° Southeast  Level FlightAware Approximate
11:20PM 48.9713 108.2721 139° Southeast  Level FlightAware Approximate
11:21PM 48.8704 108.4044 139° Southeast  Level FlightAware Approximate
11:22PM 48.7695 108.5362 139° Southeast  Level FlightAware Approximate
11:23PM 48.6683 108.6675 139° Southeast  Level FlightAware Approximate
11:24PM 48.5671 108.7982 139° Southeast  Level FlightAware Approximate
11:25PM 48.4656 108.9285 140° Southeast  Level FlightAware Approximate
11:26PM 48.3641 109.0582 140° Southeast  Level FlightAware Approximate
11:27PM 48.2624 109.1874 140° Southeast  Level FlightAware Approximate
11:28PM 48.1605 109.3160 140° Southeast  Level FlightAware Approximate
11:29PM 48.0585 109.4442 140° Southeast  Level FlightAware Approximate
11:30PM 47.9564 109.5719 140° Southeast  Level FlightAware Approximate
11:31PM 47.8541 109.6990 140° Southeast  Level FlightAware Approximate
11:32PM 47.7517 109.8257 140° Southeast  Level FlightAware Approximate
11:33PM 47.6491 109.9519 140° Southeast  Level FlightAware Approximate
11:34PM 47.5465 110.0775 140° Southeast  Level FlightAware Approximate
11:35PM 47.4436 110.2027 141° Southeast  Level FlightAware Approximate
11:36PM 47.3406 110.3274 141° Southeast  Level FlightAware Approximate
11:37PM 47.2375 110.4516 141° Southeast  Level FlightAware Approximate
11:38PM 47.1343 110.5753 141° Southeast  Level FlightAware Approximate
11:39PM 47.0309 110.6985 141° Southeast  Level FlightAware Approximate
11:40PM 46.9274 110.8213 141° Southeast  Level FlightAware Approximate
11:41PM 46.8238 110.9436 141° Southeast  Level FlightAware Approximate
11:42PM 46.7201 111.0654 141° Southeast  Level FlightAware Approximate
11:43PM 46.6162 111.1868 141° Southeast  Level FlightAware Approximate
11:44PM 46.5121 111.3076 141° Southeast  Level FlightAware Approximate
11:45PM 46.4080 111.4281 141° Southeast  Level FlightAware Approximate
11:46PM 46.3037 111.5480 142° Southeast  Level FlightAware Approximate
11:47PM 46.1993 111.6675 142° Southeast  Level FlightAware Approximate
11:48PM 46.0948 111.7866 142° Southeast  Level FlightAware Approximate
11:49PM 45.9902 111.9052 142° Southeast  Level FlightAware Approximate
11:50PM 45.8854 112.0233 142° Southeast  Level FlightAware Approximate
11:51PM 45.7805 112.1411 142° Southeast  Level FlightAware Approximate
11:52PM 45.6755 112.2583 142° Southeast  Level FlightAware Approximate
11:53PM 45.5704 112.3752 142° Southeast  Level FlightAware Approximate
11:54PM 45.4652 112.4915 142° Southeast  Level FlightAware Approximate
11:55PM 45.3598 112.6075 142° Southeast  Level FlightAware Approximate
11:56PM 45.2543 112.7230 142° Southeast  Level FlightAware Approximate
11:57PM 45.1487 112.8381 142° Southeast  Level FlightAware Approximate
11:58PM 45.0430 112.9528 143° Southeast  Level FlightAware Approximate
11:59PM 44.9372 113.0670 143° Southeast  Level FlightAware Approximate
12:00AM 44.8313 113.1809 143° Southeast  Level FlightAware Approximate
12:01AM 44.7222 113.2880 149° Southeast  Level FlightAware Approximate
12:02AM 44.6083 113.3849 149° Southeast  Level FlightAware Approximate
12:03AM 44.4943 113.4814 149° Southeast  Level FlightAware Approximate
12:04AM 44.3802 113.5776 149° Southeast  Level FlightAware Approximate
12:05AM 44.2661 113.6734 149° Southeast  Level FlightAware Approximate
12:06AM 44.1518 113.7688 149° Southeast  Level FlightAware Approximate
12:07AM 44.0375 113.8638 149° Southeast  Level FlightAware Approximate
12:08AM 43.9231 113.9585 149° Southeast  Level FlightAware Approximate
12:09AM 43.8087 114.0528 149° Southeast  Level FlightAware Approximate
12:10AM 43.6941 114.1468 149° Southeast  Level FlightAware Approximate
12:11AM 43.5795 114.2404 149° Southeast  Level FlightAware Approximate
12:12AM 43.4648 114.3336 149° Southeast  Level FlightAware Approximate
12:13AM 43.3500 114.4265 150° Southeast  Level FlightAware Approximate
12:14AM 43.2352 114.5191 150° Southeast  Level FlightAware Approximate
12:15AM 43.1202 114.6113 150° Southeast  Level FlightAware Approximate
12:16AM 43.0052 114.7031 150° Southeast  Level FlightAware Approximate
12:17AM 42.8902 114.7946 150° Southeast  Level FlightAware Approximate
12:18AM 42.7752 114.8862 150° Southeast  Level FlightAware Approximate
12:19AM 42.6602 114.9775 150° Southeast  Level FlightAware Approximate
12:20AM 42.5451 115.0685 150° Southeast  Level FlightAware Approximate
12:21AM 42.4300 115.1591 150° Southeast  Level FlightAware Approximate
12:22AM 42.3148 115.2494 150° Southeast  Level FlightAware Approximate
12:23AM 42.1992 115.3389 150° Southeast  Level FlightAware Approximate
12:24AM 42.0834 115.4275 150° Southeast  Level FlightAware Approximate
12:25AM 41.9675 115.5157 150° Southeast  Level FlightAware Approximate
12:26AM 41.8515 115.6036 151° Southeast  Level FlightAware Approximate
12:27AM 41.7355 115.6911 151° Southeast  Level FlightAware Approximate
12:28AM 41.6194 115.7784 151° Southeast  Level FlightAware Approximate
12:29AM 41.5032 115.8653 151° Southeast  Level FlightAware Approximate
12:30AM 41.3870 115.9520 151° Southeast  Level FlightAware Approximate
12:31AM 41.2707 116.0383 151° Southeast  Level FlightAware Approximate
12:32AM 41.1543 116.1243 151° Southeast  Level FlightAware Approximate
12:33AM 41.0379 116.2100 151° Southeast  Level FlightAware Approximate
12:34AM 40.9214 116.2954 151° Southeast  Level FlightAware Approximate
12:35AM 40.8049 116.3805 151° Southeast  Level FlightAware Approximate
12:36AM 40.6879 116.4656 151° Southeast  Level FlightAware Approximate
12:37AM 40.5708 116.5504 151° Southeast  Level FlightAware Approximate
12:38AM 40.4536 116.6350 151° Southeast  Level FlightAware Approximate
12:39AM 40.3364 116.7192 151° Southeast  Level FlightAware Approximate
12:40AM 40.2063 116.7169 187° South  Level FlightAware Approximate
12:41AM 40.0735 116.6971 186° South  Level FlightAware Approximate
12:42AM 39.9407 116.6774 186° South  Level FlightAware Approximate
12:43AM 39.8080 116.6578 186° South  Level FlightAware Approximate
12:44AM 39.6752 116.6383 186° South  Level FlightAware Approximate
12:45AM 39.5424 116.6189 186° South  Level FlightAware Approximate
12:46AM 39.4096 116.5995 186° South  Level FlightAware Approximate
12:47AM 39.2769 116.5802 186° South  Level FlightAware Approximate
12:48AM 39.1438 116.5667 180° South  Level FlightAware Approximate
12:49AM 39.0102 116.5667 180° South  Level FlightAware Approximate
12:50AM 38.8766 116.5667 180° South  Level FlightAware Approximate
12:51AM 38.7430 116.5667 180° South  Level FlightAware Approximate
12:52AM 38.6094 116.5667 180° South  Level FlightAware Approximate
12:53AM 38.4758 116.5667 180° South  Level FlightAware Approximate
12:54AM 38.3422 116.5667 180° South  Level FlightAware Approximate
12:55AM 38.2086 116.5667 180° South  Level FlightAware Approximate
12:56AM 38.0760 116.5760 163° South  Level FlightAware Approximate
12:57AM 37.9484 116.6255 163° South  Level FlightAware Approximate
12:58AM 37.8208 116.6749 163° South  Level FlightAware Approximate
12:59AM 37.6931 116.7242 163° South  Level FlightAware Approximate
01:00AM 37.5654 116.7732 163° South  Level FlightAware Approximate
01:01AM 37.4377 116.8221 163° South  Level FlightAware Approximate
01:02AM 37.3100 116.8708 163° South  Level FlightAware Approximate
01:03AM 37.1816 116.9162 166° South  Level FlightAware Approximate
01:04AM 37.0521 116.9565 166° South  Level FlightAware Approximate
01:05AM 36.9225 116.9967 166° South  Level FlightAware Approximate
01:06AM 36.7930 117.0367 166° South  Level FlightAware Approximate
01:07AM 36.6657 117.0863 161° South  Level FlightAware Approximate
01:08AM 36.5395 117.1404 161° South  Level FlightAware Approximate
01:09AM 36.4133 117.1943 161° South  Level FlightAware Approximate
01:10AM 36.2857 117.2429 163° South  Level FlightAware Approximate
01:11AM 36.1580 117.2908 163° South  Level FlightAware Approximate
01:12AM 36.0302 117.3384 163° South  Level FlightAware Approximate
01:13AM 35.9024 117.3859 163° South  Level FlightAware Approximate
01:14AM 35.7746 117.4333 163° South  Level FlightAware Approximate
01:15AM 35.6467 117.4805 163° South  Level FlightAware Approximate
01:16AM 35.5189 117.5276 163° South  Level FlightAware Approximate
01:17AM 35.3910 117.5745 163° South  Level FlightAware Approximate
01:18AM 35.2631 117.6213 163° South  Level FlightAware Approximate
01:19AM 35.1352 117.6679 163° South  Level FlightAware Approximate
01:20AM 35.0073 117.7144 163° South  Level FlightAware Approximate
01:21AM 34.8794 117.7607 163° South  Level FlightAware Approximate
01:22AM 34.7514 117.8066 164° South  Level FlightAware Approximate
01:23AM 34.6233 117.8522 164° South  Level FlightAware Approximate
01:24AM 34.4952 117.8977 164° South  Level FlightAware Approximate
01:25AM 34.3671 117.9430 164° South  Level FlightAware Approximate
01:26AM 34.2462 118.0077 148° Southeast  Level FlightAware Approximate
01:27AM 34.1331 118.0935 148° Southeast  Level FlightAware Approximate
01:28AM 34.0201 118.1791 148° Southeast  Level FlightAware Approximate
01:29AM 33.9069 118.2645 148° Southeast  Level FlightAware Approximate
01:30AM 33.7938 118.3496 148° Southeast  Level FlightAware Approximate
01:31AM 33.6805 118.4345 148° Southeast  Level FlightAware Approximate
01:32AM 33.5672 118.5192 148° Southeast  Level FlightAware Approximate
01:33AM 33.4538 118.6037 148° Southeast  Level FlightAware Approximate
01:34AM 33.3404 118.6879 148° Southeast  Level FlightAware Approximate
01:35AM 33.2270 118.7719 148° Southeast  Level FlightAware Approximate
01:36AM 33.1134 118.8558 148° Southeast  Level FlightAware Approximate
01:37AM 32.9999 118.9394 148° Southeast  Level FlightAware Approximate
01:37AM 31.5451 120.4687 148° Southeast 480 552 20,700  Level FlightAware ADS-B (ZSSS / SHA)
01:37AM 31.5212 120.5502 109° East 480 552 20,700  Level FlightAware ADS-B (ZSSS / SHA)
01:38AM 31.4995 120.6236 109° East 479 551 20,700 -600 Level FlightAware ADS-B (ZSSS / SHA)
01:38AM 31.4784 120.6941 109° East 466 536 20,100 -2,000 Descending FlightAware ADS-B (ZSSS / SHA)
01:39AM 31.4563 120.7668 110° East 464 534 18,700 -2,500 Descending FlightAware ADS-B (ZSSS / SHA)
01:39AM 31.4364 120.8327 109° East 456 525 17,600 -2,237 Descending FlightAware ADS-B (ZSSS / SHA)
01:40AM 31.4144 120.9049 110° East 448 516 16,500 -2,100 Descending FlightAware ADS-B (ZSSS / SHA)
01:40AM 31.3940 120.9720 110° East 441 507 15,500 -1,967 Descending FlightAware ADS-B (ZSSS / SHA)
01:41AM 31.3733 121.0399 110° East 429 494 14,500 -1,700 Descending FlightAware ADS-B (ZSSS / SHA)
01:41AM 31.3489 121.1023 115° Southeast 426 490 13,800 -857 Descending FlightAware ADS-B (ZSSS / SHA)
01:42AM 31.3239 121.1378 130° Southeast 422 486 13,800  Level FlightAware ADS-B (ZSSS / SHA)
01:42AM 31.2665 121.1974 138° Southeast 416 479 13,800  Level FlightAware ADS-B (ZSSS / SHA)
01:43AM 31.2234 121.2408 139° Southeast 416 479 13,800 -1,000 Level FlightAware ADS-B (ZSSS / SHA)
01:43AM 31.1804 121.2838 139° Southeast 409 471 12,800 -1,400 Descending FlightAware ADS-B (ZSSS / SHA)
01:44AM 31.1384 121.3282 138° Southeast 387 445 12,400 -840 Descending FlightAware ADS-B (ZSSS / SHA)
01:44AM 31.1180 121.3605 126° Southeast 377 434 12,100 -960 Descending FlightAware ADS-B (ZSSS / SHA)
01:45AM 31.0964 121.4149 115° Southeast 362 417 11,600 -900 Descending FlightAware ADS-B (ZSSS / SHA)
01:45AM 31.0778 121.4669 113° Southeast 346 398 11,200 -689 Descending FlightAware ADS-B (ZSSS / SHA)
01:46AM 31.0598 121.5176 112° Southeast 329 379 10,900 -700 Descending FlightAware ADS-B (ZSSS / SHA)
01:46AM 31.0427 121.5646 113° Southeast 314 361 10,500 -712 Descending FlightAware ADS-B (ZSSS / SHA)
01:47AM 31.0264 121.6088 113° Southeast 299 344 10,200 -600 Descending FlightAware ADS-B (ZSSS / SHA)
01:49AM 31.1428 121.7924 53° Northeast  Level Estimated
01:50AM 31.1428 121.7924 221° Southwest  Level Estimated
01:51AM 31.1428 121.7924 221° Southwest  Level Estimated
01:52AM 31.1428 121.7924 221° Southwest  Level Estimated
01:53AM 31.1428 121.7924 221° Southwest  Level Estimated
01:54AM 31.1428 121.7924 221° Southwest  Level Estimated
01:55AM 31.1428 121.7924 221° Southwest  Level Estimated
01:56AM 31.1428 121.7924 221° Southwest  Level Estimated
01:57AM 31.1428 121.7924 221° Southwest  Level Estimated
01:58AM 31.1428 121.7924 221° Southwest  Level Estimated
01:59AM 31.1428 121.7924 221° Southwest  Level Estimated
02:00AM 31.1428 121.7924 221° Southwest  Level Estimated
02:01AM 31.1428 121.7924 221° Southwest  Level Estimated
02:02AM 31.1428 121.7924 221° Southwest  Level Estimated
02:03AM 31.1428 121.7924 221° Southwest  Level Estimated

Login

Don't have an account? Register now (free) for customized features, flight alerts, and more!